Regional Weather Roundup
Issued by NWS

Home | Current Version | Previous Version | Graphics & Text | Print | Product List | Glossary On
Versions: 1 2 3 4 5 6 7 8 9 10 11 12 13 14 15 16 17 18 19 20 21 22 23 24 25 26 27 28 29 30 31 32 33 34 35 36 37 38 39 40 41 42 43 44 45 46 47 48 49 50
548
ASUS44 KLIX 191005
RWRLA
LOUISIANA WEATHER ROUNDUP
NATIONAL WEATHER SERVICE NEW ORLEANS LA
400 AM CST FRI DEC 19 2014

NOTE: "FAIR" INDICATES FEW OR NO CLOUDS BELOW 12,000 FEET WITH NO
      SIGNIFICANT WEATHER AND/OR OBSTRUCTIONS TO VISIBILITY.
      SKY/WX - SKY CONDITION AND SIGNIFICANT WEATHER.
      TMP - AIR TEMPERATURE.    DP   - DEWPOINT TEMPERATURE.
      RH  - RELATIVE HUMIDITY.  PRES - PRESSURE.
      HX  - HEAT INDEX.         WCI  - WIND CHILL INDEX.

*  THESE STATIONS ARE NOT NWS OR FAA STATIONS AND ARE NOT UNDER
   NWS QUALITY CONTROL.

LAZ040-048-061>063-065-066-069-191100-
SOUTHEAST LOUISIANA

CITY           SKY/WX    TMP DP  RH WIND       PRES   REMARKS
N.O. AUDUBON     N/A     60  53  77 MISG        N/A
N.O. INTL ARPT CLOUDY    57  50  77 E10       30.05F
N.O. LAKEFRONT CLOUDY    58  50  75 E13       30.06F
N.O. DOWNTOWN* PTSUNNY   57  48  72 E10G20    30.05F
SLIDELL        CLOUDY    55  50  83 NE8       30.07F
BATON ROUGE    HVY RAIN  53  52  96 NE7       30.05S FOG
BOOTHVILLE     CLOUDY    61  56  83 N9        30.06S
BELLE CHASSE   CLOUDY    56  53  90 E12       30.05S
BOGALUSA*        N/A     54  50  87 CALM      30.10F
GALLIANO*      CLOUDY    58  57  97 MISG      30.04S
NEW ROADS*     RAIN      53  53  98 N9        30.05F
GONZALES*      LGT RAIN  56  56 100 CALM      30.05R
HAMMOND*       NOT AVBL
HOUMA*         CLOUDY    59  58  98 NE6       30.04S FOG
PORT FOURCHON* CLOUDY    64  61  88 NE7       30.05F

$$

LAZ041-044-053-054-191100-
SOUTHWEST LOUISIANA

CITY           SKY/WX    TMP DP  RH WIND       PRES   REMARKS
LAKE CHARLES   TSTM      54  52  93 MISG      30.11R FOG
LAFAYETTE      LGT RAIN  58  58 100 NE3       30.04R FOG
PATTERSON      CLOUDY    57  55  94 E8        30.03F
SALT POINT       N/A     62  58  86 VRB5      30.00F
NEW IBERIA     LGT RAIN  59  56  89 E9        30.03F FOG
CHENAULT AIRPK NOT AVBL

$$

LAZ027-028-191100-
CENTRAL LOUISIANA

CITY           SKY/WX    TMP DP  RH WIND       PRES   REMARKS
FORT POLK      RAIN      52  50  93 NE6       30.08R VSB 1
ALEXANDRIA INT CLOUDY    51  51 100 N6        30.08F FOG
ALEXANDRIA     LGT RAIN  51  50  96 NE6       30.08F

$$

LAZ001-002-191100-
NORTHWEST LOUISIANA

CITY           SKY/WX    TMP DP  RH WIND       PRES   REMARKS
SHREVEPORT     CLOUDY    50  47  89 NE8       30.13F
BARKSDALE AFB  NOT AVBL
DTN SHREVEPORT CLOUDY    49  46  90 NE7       30.15S

$$

LAZ014-016-191100-
NORTHEAST LOUISIANA

CITY           SKY/WX    TMP DP  RH WIND       PRES   REMARKS
MONROE         CLOUDY    48  46  93 NE9       30.15F
TALLULAH       CLOUDY    50  45  83 NE5       30.14S

$$




USA.gov is the U.S. government's official web portal to all federal, state and local government web resources and services.